N810BE -KSAN

Flight info

Callsign N810BE
Flight time N/A
Altitude
Route
Aircraft G36/L-VGD/C

Departure

Time N/A
Airport -

Arrival

Time 2026-05-04 21:45
Airport San Diego International Airport (KSAN)
Time Latitude Longitude Altitude Speed Heading
2026-05-04 21:44 32.73373 -117.17965 27 ft 0 kts 130°
2026-05-04 21:45 32.73372 -117.17965 27 ft 3 kts 130°
2026-05-04 21:46 32.73314 -117.17963 25 ft 10 kts 201°
2026-05-04 21:46 32.73241 -117.17978 22 ft 10 kts 158°
2026-05-04 21:46 32.73199 -117.17842 23 ft 34 kts 107°
2026-05-04 21:46 32.73154 -117.17655 23 ft 19 kts 105°
2026-05-04 21:47 32.73123 -117.17576 22 ft 7 kts 142°
2026-05-04 21:47 32.73068 -117.17532 23 ft 11 kts 158°
2026-05-04 21:47 32.73016 -117.17560 24 ft 8 kts 274°
2026-05-04 21:47 32.73092 -117.17882 49 ft 72 kts 286°
2026-05-04 21:48 32.73249 -117.18511 310 ft 85 kts 285°
2026-05-04 21:48 32.73430 -117.19249 609 ft 104 kts 284°
2026-05-04 21:48 32.73637 -117.20124 1054 ft 113 kts 286°
2026-05-04 21:48 32.73872 -117.20693 1246 ft 128 kts 311°
2026-05-04 21:49 32.74820 -117.20733 1205 ft 155 kts 15°
2026-05-04 21:49 32.75537 -117.19842 1267 ft 156 kts 85°
2026-05-04 21:49 32.75316 -117.18614 1255 ft 150 kts 105°
2026-05-04 21:49 32.75043 -117.17444 1150 ft 143 kts 107°
2026-05-04 21:50 32.74796 -117.16324 1122 ft 140 kts 103°
2026-05-04 21:50 32.74560 -117.15211 1155 ft 137 kts 105°
2026-05-04 21:50 32.74348 -117.14182 1228 ft 121 kts 106°
2026-05-04 21:50 32.74016 -117.13287 1168 ft 117 kts 143°
2026-05-04 21:51 32.73272 -117.13247 969 ft 112 kts 201°
2026-05-04 21:51 32.72528 -117.13540 782 ft 113 kts 208°
2026-05-04 21:51 32.72200 -117.14247 671 ft 98 kts 282°
2026-05-04 21:51 32.72367 -117.14886 580 ft 75 kts 286°
2026-05-04 21:52 32.72509 -117.15482 493 ft 75 kts 285°
2026-05-04 21:52 32.72706 -117.16256 359 ft 69 kts 287°
2026-05-04 21:52 32.72808 -117.16615 282 ft 70 kts 289°
2026-05-04 21:52 32.72924 -117.17211 190 ft 73 kts 284°
2026-05-04 21:53 32.73064 -117.17792 110 ft 68 kts 287°
2026-05-04 21:53 32.73179 -117.18255 25 ft 46 kts 286°
2026-05-04 21:53 32.73240 -117.18441 25 ft 7 kts 349°
2026-05-04 21:53 32.73308 -117.18426 25 ft 10 kts 28°
2026-05-04 21:54 32.73323 -117.18357 24 ft 15 kts 108°
2026-05-04 21:54 32.73293 -117.18233 23 ft 16 kts 106°
2026-05-04 21:54 32.73263 -117.18109 24 ft 18 kts 106°
2026-05-04 21:54 32.73204 -117.17864 23 ft 31 kts 106°
2026-05-04 21:55 32.73166 -117.17708 25 ft 12 kts 105°
2026-05-04 21:55 32.73126 -117.17666 24 ft 6 kts 183°
2026-05-04 21:55 32.73121 -117.17666 24 ft 0 kts 187°
2026-05-04 23:00 32.73100 -117.17670 16 ft 14 kts 193°
2026-05-04 23:00 32.73051 -117.17723 15 ft 2 kts 284°
2026-05-04 23:01 32.73114 -117.17973 14 ft 70 kts 286°
2026-05-04 23:01 32.73282 -117.18658 265 ft 100 kts 285°
2026-05-04 23:01 32.73500 -117.19494 645 ft 113 kts 284°
2026-05-04 23:01 32.73770 -117.20413 1131 ft 121 kts 289°
2026-05-04 23:02 32.74510 -117.21013 1154 ft 149 kts 356°
2026-05-04 23:02 32.75529 -117.20691 1314 ft 150 kts 16°
2026-05-04 23:02 32.76208 -117.19882 1459 ft 128 kts 71°
2026-05-04 23:02 32.76129 -117.18882 1206 ft 121 kts 106°
2026-05-04 23:03 32.75896 -117.17876 1002 ft 134 kts 107°
2026-05-04 23:03 32.75680 -117.16834 850 ft 122 kts 108°
2026-05-04 23:03 32.75465 -117.15853 927 ft 124 kts 116°
2026-05-04 23:03 32.74877 -117.15391 944 ft 92 kts 193°
2026-05-04 23:04 32.74253 -117.15484 841 ft 90 kts 197°
2026-05-04 23:04 32.73623 -117.15591 781 ft 90 kts 200°
2026-05-04 23:04 32.73075 -117.15749 649 ft 71 kts 207°
2026-05-04 23:04 32.72770 -117.16203 385 ft 76 kts 259°
2026-05-04 23:05 32.72835 -117.16862 257 ft 85 kts 280°
2026-05-04 23:05 32.73002 -117.17508 159 ft 74 kts 285°
2026-05-04 23:05 32.73124 -117.18019 40 ft 61 kts 285°
2026-05-04 23:05 32.73210 -117.18393 18 ft 33 kts 286°
2026-05-04 23:06 32.73344 -117.18910 154 ft 89 kts 287°
2026-05-04 23:06 32.73550 -117.19712 466 ft 113 kts 283°
2026-05-04 23:06 32.73808 -117.20697 804 ft 130 kts 292°
2026-05-04 23:06 32.74636 -117.21149 1193 ft 161 kts
2026-05-04 23:07 32.75636 -117.20661 1370 ft 147 kts 52°
2026-05-04 23:07 32.75622 -117.19589 1403 ft 125 kts 109°
2026-05-04 23:07 32.75423 -117.18584 1275 ft 138 kts 104°
2026-05-04 23:07 32.75139 -117.17345 1104 ft 167 kts 105°
2026-05-04 23:08 32.74995 -117.16025 1195 ft 155 kts 71°
2026-05-04 23:08 32.75766 -117.15409 1254 ft 139 kts 341°
2026-05-04 23:08 32.76152 -117.16256 1227 ft 135 kts 247°
2026-05-04 23:08 32.75337 -117.16750 927 ft 133 kts 191°
2026-05-04 23:09 32.74514 -117.16882 672 ft 97 kts 195°
2026-05-04 23:09 32.73969 -117.17023 438 ft 72 kts 194°
2026-05-04 23:09 32.73446 -117.17161 259 ft 78 kts 200°
2026-05-04 23:09 32.73098 -117.17556 123 ft 67 kts 260°
2026-05-04 23:10 32.73143 -117.18087 21 ft 59 kts 286°
2026-05-04 23:10 32.73217 -117.18384 18 ft 15 kts 295°
2026-05-04 23:10 32.73297 -117.18435 19 ft 10 kts 10°
2026-05-04 23:10 32.73327 -117.18373 18 ft 10 kts 101°
2026-05-04 23:11 32.73305 -117.18285 17 ft 12 kts 106°
2026-05-04 23:11 32.73282 -117.18185 17 ft 13 kts 105°
2026-05-04 23:11 32.73256 -117.18079 17 ft 17 kts 105°
2026-05-04 23:11 32.73255 -117.17985 17 ft 7 kts 27°
2026-05-04 23:12 32.73315 -117.17964 20 ft 14 kts 16°
2026-05-04 23:12 32.73415 -117.17929 21 ft 15 kts 17°
2026-05-04 23:12 32.73458 -117.17914 21 ft 0 kts 17°